Regional Weather Roundup
Issued by NWS

Home | Current Version | Previous Version | Graphics & Text | Print | Product List | Glossary On
Versions: 1 2 3 4 5 6 7 8 9 10 11 12 13 14 15 16 17 18 19 20 21 22 23 24 25 26 27 28 29 30 31 32 33 34 35 36 37 38 39 40 41 42 43 44 45 46 47 48 49 50
860
ASUS43 KDMX 221401
RWRIA

WEATHER ROUNDUP FOR IOWA
NATIONAL WEATHER SERVICE DES MOINES IA
800 AM CST WED NOV 22 2017

NOTE: "FAIR" INDICATES FEW OR NO CLOUDS BELOW 12,000 FEET WITH NO
SIGNIFICANT WEATHER AND/OR OBSTRUCTIONS TO VISIBILITY.

* - THESE STATIONS ARE NOT NWS STATIONS...THUS NOT UNDER NWS
QUALITY CONTROL.  THEY ALSO DO NOT REPORT WEATHER SUCH
AS PRECIPITATION OR FOG.

IAZ001>003-012>014-020>022-031>034-043>046-221500-
   NORTHWEST IOWA

CITY           SKY/WX    TMP DP  RH WIND       PRES   REMARKS
CARROLL *      CLOUDY    12   9  85 CALM      30.37R
CHEROKEE *     CLOUDY    11   9  93 S3        30.34F
DENISON *      CLOUDY    12  10  92 CALM      30.38S
LE MARS *      CLOUDY    12   9  85 S5        30.33F WCI   4
ORANGE CITY *  CLOUDY    12  10  92 S3        30.30F
SHELDON *      CLEAR     10   7  85 S6        30.29F WCI   1
SIOUX CITY     CLOUDY    11   7  84 E6        30.36S WCI   1
SPENCER        CLOUDY    10   5  80 S3        30.33R
STORM LAKE *   CLOUDY    12   7  79 SW8       30.33S WCI   1
$$

IAZ055>058-069>071-079>083-090>094-221500-
   SOUTHWEST IOWA

CITY           SKY/WX    TMP DP  RH WIND       PRES   REMARKS
ATLANTIC *     CLOUDY    12  10  92 SW3       30.40R
AUDUBON *      CLOUDY    12   9  85 CALM      30.37R
CLARINDA *     CLOUDY    14  12  92 CALM        N/A
COUNCIL BLFS * CLOUDY    16  16 100 S5        30.38S WCI   9
CRESTON *      CLOUDY    14  10  85 CALM      30.39S
HARLAN  *      CLOUDY    12  12 100 CALM      30.42R
RED OAK *      CLOUDY    14  12  92 CALM      30.42R
SHENANDOAH *   CLOUDY    14  12  92 CALM      30.43S
$$

IAZ047>049-059>061-072>074-084-221500-
   CENTRAL IOWA

CITY           SKY/WX    TMP DP  RH WIND       PRES   REMARKS
AMES           CLOUDY    15  12  88 W5        30.38S WCI   8
ANKENY *       CLOUDY    18  14  86 CALM      30.41S
BOONE *        CLOUDY    14  10  85 W5        30.35S WCI   6
CHARITON *     CLOUDY    18  14  86 W5        30.39R WCI  11
DES MOINES     CLOUDY    18  12  77 SW3       30.39S
GRINNELL*      CLOUDY    15  12  88 SW3       30.39R
KNOXVILLE *    CLOUDY    18  12  79 CALM      30.39R
MARSHALLTOWN   CLOUDY    14  12  92 W5        30.37R WCI   6
NEWTON *       CLOUDY    16  12  86 CALM      30.39R
PELLA *        CLOUDY    18  13  80 CALM      30.41S
PERRY *          N/A     13  11  89 SW3       30.38S
$$

IAZ004>006-015-016-023>025-035-036-221500-
   NORTH CENTRAL IOWA

CITY           SKY/WX    TMP DP  RH WIND       PRES   REMARKS
ALGONA *       CLOUDY    12  10  92 CALM      30.33R
CLARION *      CLOUDY    12  10  92 S5        30.35R WCI   4
ESTHERVILLE    CLOUDY     9   7  92 SW5       30.32R WCI   1
FORT DODGE *   CLOUDY    14  10  84 S3        30.36R
MASON CITY     CLOUDY    13  10  88 CALM      30.35R
FOREST CITY *    N/A     14  10  85 CALM      30.34R
WEBSTER CITY * CLOUDY    12   9  85 SW6       30.34R WCI   3
IOWA FALLS *     N/A     14  11  87 SW5       30.36S WCI   7
$$

IAZ007>011-017>019-026>030-037>042-050>054-066-221500-
   NORTHEAST IOWA

CITY           SKY/WX    TMP DP  RH WIND       PRES   REMARKS
CEDAR RAPIDS   CLOUDY    14  11  87 W3        30.37R
CHARLES CITY * CLOUDY    14  14 100 W3        30.35S
CLINTON *      CLOUDY    17  14  88 W6        30.39R WCI   9
DECORAH *      CLOUDY    16  12  86 CALM      30.33R
DUBUQUE        CLOUDY    16  13  88 CALM      30.35R
MONTICELLO *   CLOUDY    18  12  79 CALM      30.37S
OELWEIN *      CLOUDY    16  16 100 CALM      30.36S
WATERLOO       CLOUDY    15  10  80 CALM      30.38R
$$

IAZ064-065-067-068-078-221500-
   EAST CENTRAL IOWA

CITY           SKY/WX    TMP DP  RH WIND       PRES   REMARKS
DAVENPORT      CLOUDY    18  14  84 W6        30.41R WCI  10
IOWA CITY      CLOUDY    20  13  74 W5        30.41S WCI  13
MT. PLEASANT * CLOUDY    19  14  80 NW5       30.40S WCI  12
MUSCATINE *    CLOUDY    19  14  79 NW3       30.42S
QUAD CITIES    CLOUDY    22  16  78 W3        30.39R
$$

IAZ062-063-075>077-085>089-095>099-221500-
   SOUTHEAST IOWA

CITY           SKY/WX    TMP DP  RH WIND       PRES   REMARKS
BURLINGTON     CLOUDY    20  15  81 CALM      30.40R
FAIRFIELD *    CLOUDY    19  12  73 W3        30.40R
FORT MADISON * CLOUDY    19  16  86 CALM      30.40S
KEOKUK *       CLOUDY    21  16  79 NW6       30.41R WCI  14
OSKALOOSA *      N/A     17  13  87 CALM      30.40R
OTTUMWA        CLOUDY    19  14  81 CALM      30.40R
WASHINGTON *   CLOUDY    18  16  93 W5        30.41R WCI  11
$$

ABBREVIATIONS USED IN REMARKS
   TC - TEMPERATURES IN CELSIUS
  WCI - WIND CHILL INDEX
   HX - HEAT INDEX
  VSB - VISIBILITY
$$





USA.gov is the U.S. government's official web portal to all federal, state and local government web resources and services.